STARLINK-4723, 53797

Orbit data source: Space-Track

STARLINK-4723, 53797 is a payload satellite owned by SpaceX/Seattle (US) in LEO that was launched on Sun, 11 Sep 2022 UTC via an FALCON 9 launch vehicle from the Air Force Eastern Test Range (AFETR). Payload-class satellites include a variety of spacecraft equipped with specific instruments for various scientific and technological missions. These include communications satellites like Starlink; space stations such as the ISS; scientific satellites like the Hubble; Earth observation satellites from companies like Planet Labs, Umbra, and HawkEye 360; GPS; miniature CubeSats for education and research; and military/defense satellites.

Loading next visibility...
Identifier
53797, 2022-111AA
Orbit
LEO
Country
Flag of USUS
Related business
Manufacturer
SpaceX/Seattle
Mission
Operational Commercial Communications
Bus & Motor
STARLINK, Unknown motor
Mass
305 kg wet, ~290 kg dry
Launch date (UTC)
2022-09-11 (4 years ago)
Launch vehicle
FALCON 9
Launch site
Air Force Eastern Test Range (AFETR)
Object type
Payload
Rocket body
Debris
Shape & HBR
Box + 1 Pan, 10.1 m
Radar Cross Section
13.562 m², Large (>1 m²)

Expand to show TLE details & history
Last TLE update: 14 hours ago

TLE from 14 hours ago
0 STARLINK-4723
1 53797U 22111AA  26197.81993330  .00100729  00000-0  36009-2 0  9998
2 53797  53.1611  51.8338 0000785 105.7664 254.3422 15.28012635213200
Epoch: 2026-07-16T19:40Z
TLE epoch observation values (Epoch: 2026-07-16T19:40:42.237Z)
Latitude
-0.00004°
Longitude
-177.99812°
Altitude
482.798 km
Speed
7.625 km/s
True Right ascension
03h 27m 20s
True Declination
0° 00' 00"
Sunlit
Object was in daylight at epoch
Visualization orbit readout
Latitude
Unknown
Longitude
Unknown
Altitude
Unknown
Speed
Unknown
Apparent Right ascension
Unknown
Apparent Declination
Unknown
Sunlit
N/A
Visualization observer readout
Local Sidereal Time
21:57:46
Azimuth
Unknown
Elevation
Unknown
Doppler factor
Unknown
Orbital elements
Apogee altitude
482.548 km
Perigee altitude
481.471 km
Semi-major axis
6,860.147 km
Eccentricity
0.00008
Inclination
53.1611°
RAAN
51.8338°
Arg. of periapsis
105.7664°
True anomaly
254.33354°
Mean anomaly
254.3422°
Eccentric anomaly
254.33787°
Mean motion
3.81982 °/min
Orbital period
94.25 mins
BSTAR
0.0036009
Loading maneuver chart data...
Computing Atmospheric mass density...
Loading historical data...
Loading historical data...
Loading historical data...
Loading historical data...
Loading historical data...
Loading historical data...
Loading historical data...

Documentation

Showing up to 5 results
|